TimeEDT,TemperatureF,Dew PointF,Humidity,Sea Level PressureIn,VisibilityMPH,Wind Direction,Wind SpeedMPH,Gust SpeedMPH,PrecipitationIn,Events,Conditions,WindDirDegrees,DateUTC
12:00 AM,32.0,26.6,80,30.45,15.0,ENE,3.5,-,N/A,,Partly Cloudy,60,2012-10-13 04:00:00
1:00 AM,30.2,26.6,86,30.43,15.0,Calm,Calm,-,N/A,,Clear,0,2012-10-13 05:00:00
2:00 AM,29,25,80,30.43,15,East,5.8,,,,,90,2012-10-13 06:00:00
2:00 AM,28.4,24.8,86,30.43,15.0,East,5.8,-,N/A,,Clear,90,2012-10-13 06:00:00
3:00 AM,30.2,24.8,80,30.41,15.0,ENE,5.8,-,N/A,,Clear,70,2012-10-13 07:00:00
4:00 AM,30.2,24.8,80,30.39,15.0,ENE,4.6,-,N/A,,Partly Cloudy,70,2012-10-13 08:00:00
5:00 AM,30.2,24.8,80,30.40,15.0,ENE,4.6,-,N/A,,Clear,70,2012-10-13 09:00:00
6:00 AM,30.2,23.0,75,30.40,15.0,East,6.9,-,N/A,,Partly Cloudy,90,2012-10-13 10:00:00
7:00 AM,30.2,24.8,80,30.38,15.0,ESE,3.5,-,N/A,,Partly Cloudy,120,2012-10-13 11:00:00
8:00 AM,31,27,79,30.38,15,ESE,4.6,,,,,120,2012-10-13 12:00:00
8:00 AM,30.2,26.6,86,30.38,15.0,SE,4.6,-,N/A,,Scattered Clouds,140,2012-10-13 12:00:00
9:00 AM,37.4,32.0,81,30.37,15.0,ESE,4.6,-,N/A,,Scattered Clouds,110,2012-10-13 13:00:00
10:00 AM,44.6,35.6,71,30.37,15.0,SE,6.9,-,N/A,,Mostly Cloudy,130,2012-10-13 14:00:00
11:00 AM,46.4,37.4,71,30.35,15.0,SSE,8.1,-,N/A,,Mostly Cloudy,150,2012-10-13 15:00:00
12:00 PM,48.2,37.4,66,30.32,15.0,SSE,9.2,-,N/A,,Overcast,150,2012-10-13 16:00:00
12:38 PM,48.2,39.2,71,30.30,15.0,South,15.0,-,N/A,Rain,Light Rain,170,2012-10-13 16:38:00
1:00 PM,48.2,41.0,76,30.28,15.0,South,11.5,-,N/A,Rain,Light Rain,170,2012-10-13 17:00:00
2:00 PM,49,42,67,30.23,15,SSE,12.7,,,,Overcast,150,2012-10-13 18:00:00
2:00 PM,50.0,41.0,71,30.22,15.0,SSE,12.7,18.4,N/A,Rain,Light Rain,160,2012-10-13 18:00:00
2:32 PM,46.4,41.0,81,30.21,8.0,South,19.6,-,N/A,Rain,Light Rain,180,2012-10-13 18:32:00
3:00 PM,44.6,41.0,87,30.21,8.0,South,10.4,19.6,N/A,Rain,Light Rain,180,2012-10-13 19:00:00
4:00 PM,44.6,42.8,93,30.15,6.0,SE,13.8,20.7,N/A,Rain,Light Rain,140,2012-10-13 20:00:00
5:00 PM,44.6,42.8,93,30.09,8.0,SE,16.1,-,N/A,,Overcast,130,2012-10-13 21:00:00
6:00 PM,46.4,42.8,87,30.05,10.0,SE,13.8,-,N/A,Rain,Light Rain Showers,140,2012-10-13 22:00:00
7:00 PM,46.4,44.6,93,30.02,6.0,SE,10.4,-,N/A,Rain,Light Rain Showers,140,2012-10-13 23:00:00
8:00 PM,48.2,46.4,93,29.99,6.0,SSE,12.7,-,N/A,Rain,Light Rain Showers,160,2012-10-14 00:00:00
9:00 PM,51.8,50.0,94,29.96,8.0,South,11.5,-,N/A,Rain,Light Rain Showers,180,2012-10-14 01:00:00
10:00 PM,55.4,51.8,88,29.94,8.0,South,15.0,-,N/A,Rain,Light Rain Showers,190,2012-10-14 02:00:00
11:00 PM,55.4,53.6,94,29.92,10.0,SSW,17.3,26.5,N/A,Rain,Light Rain Showers,200,2012-10-14 03:00:00